Home   Weather   Savannah   Past weeks

Flag for USA Past Weather in Savannah, Georgia, USA — Yesterday and Last 2 Weeks

Now
63 °F

Overcast.


Feels Like: 63 °F
Forecast: 61 / 82 °F
Wind: 16 mph from Northwest

Location: Hunter U. S. Army Airfield

Current Time: Apr 25, 2017 at 10:55:15 am

Latest Report: Apr 25, 2017 at 10:13 am


Visibility: 10 mi

Pressure: 29.76 "Hg

Humidity: 83%

Dew Point: 57 °F

Location of SavannahLocation

Past Weather in Savannah — Graph

°F

Savannah Temperature Yesterday

Maximum temperature yesterday: 79 °F (at 2:31 pm)
Minimum temperature yesterday: 61 °F (at 10:58 pm)
Average temperature yesterday: 71 °F

High & Low Weather Summary for the Past Weeks

 TemperatureHumidityPressure
High85 °F (Apr 22, 1:58 pm)100% (Apr 10, 11:58 pm)30.36 "Hg (Apr 10, 11:58 pm)
Low54 °F (Apr 11, 5:58 am)47% (Apr 13, 1:58 pm)29.62 "Hg (Apr 24, 3:58 pm)
Average71 °F82%30.10 "Hg
* Reported Apr 10 8:58 am — Apr 25 8:58 am, Savannah, Weather by CustomWeather, © 2017

Note: Actual official high and low records may vary slightly from our data, if they occured in-between our weather recording intervals... More about our weather records

Advertising

Savannah Weather History for the Previous 24 Hours

Scroll right to see more
 ConditionsComfort  
Time TempWeatherWind HumidityBarometerVisibility
8:58 am
Tue, Apr 25
62 °FOvercast.15 mph86%29.73 "Hg10 mi
7:58 am61 °FOvercast.14 mph88%29.72 "Hg10 mi
6:58 am60 °FOvercast.10 mph92%29.68 "Hg10 mi
5:58 am60 °FOvercast.14 mph89%29.66 "Hg10 mi
4:58 am61 °FOvercast.14 mph90%29.66 "Hg10 mi
3:58 am61 °FOvercast.10 mph90%29.65 "Hg10 mi
2:58 am61 °FOvercast.10 mph90%29.65 "Hg10 mi
2:38 am61 °FOvercast.9 mph88%29.66 "Hg10 mi
1:58 am62 °FOvercast.12 mph91%29.66 "Hg10 mi
12:58 am62 °FOvercast.9 mph91%29.66 "Hg10 mi
11:58 pm
Mon, Apr 24
62 °FPassing clouds.9 mph92%29.66 "Hg10 mi
11:38 pm61 °FPassing clouds.8 mph94%29.66 "Hg9 mi
10:58 pm61 °FClear.6 mph93%29.65 "Hg8 mi
9:58 pm62 °FClear.7 mph88%29.66 "Hg10 mi
8:58 pm66 °FPartly cloudy.17 mph76%29.66 "Hg10 mi
7:58 pm67 °FSunny.9 mph65%29.63 "Hg10 mi
6:58 pm72 °FSunny.14 mph58%29.62 "Hg10 mi
5:58 pm74 °FPassing clouds.14 mph52%29.62 "Hg10 mi
5:04 pm72 °FMostly cloudy.18 mph57%29.62 "Hg10 mi
3:58 pm77 °FScattered clouds.16 mph49%29.62 "Hg10 mi
3:18 pm77 °FScattered clouds.17 mph51%29.63 "Hg10 mi
2:58 pm77 °FPassing clouds.15 mph49%29.64 "Hg10 mi
2:31 pm79 °FPassing clouds.17 mph48%29.64 "Hg10 mi
1:58 pm78 °FPassing clouds.15 mph50%29.65 "Hg10 mi
1:42 pm77 °FScattered clouds.17 mph51%29.65 "Hg10 mi
12:58 pm77 °FScattered clouds.16 mph57%29.66 "Hg10 mi
11:58 am74 °FScattered clouds.13 mph76%29.67 "Hg10 mi
10:58 am70 °FPartly sunny.13 mph88%29.68 "Hg10 mi
Weather by CustomWeather, © 2017

See weather overviewHow to use our weather pages